Location: Spring Creek
(38.2870°N, 100.2160°W)
Time: 23:55:05
(UTC+00:00)

ERS-1 Rocket - Pass Details

Date: 08 May 2021
Orbit: 753 x 757 km, 98.4° (Epoch: 21 June)

Event Time Altitude Azimuth Distance (km) Brightness Sun altitude
Exits shadow 04:11:01 62° 82° (E) 846 3.0 -24.8°
Maximum altitude 04:11:08 63° 74° (ENE) 844 3.0 -24.8°
Drops below altitude 10° 04:16:06 10° 354° (N) 2,287 6.2 -25.4°
Sets 04:18:26 0° 351° (N) 3,217 7.2 -25.7°
